| time (UTC) | temp C | wind direction | speed KPH | gust KPH | rain 1hr cm | rain 24hr cm | rain mn cm | humidity % | barometer mb |
| 20260505063159 | 8 | 132 | 0.0 | 0.0 | 0.00 | 0.00 | 0.00 | 82 | 1016.5 |
| 20260505062359 | 8 | 132 | 0.0 | 0.0 | 0.00 | 0.00 | 0.00 | 82 | 1016.5 |
| 20260505060759 | 9 | 132 | 0.0 | 0.0 | 0.00 | 0.00 | 0.00 | 82 | 1016.7 |
| 20260505060002 | 9 | 132 | 0.0 | 0.0 | 0.00 | 0.00 | 0.00 | 82 | 1016.8 |
| 20260505055158 | 9 | 133 | 0.0 | 0.0 | 0.00 | 0.00 | 0.00 | 82 | 1016.7 |
| 20260505054359 | 9 | 133 | 0.0 | 0.0 | 0.00 | 0.00 | 0.00 | 82 | 1016.8 |
| 20260505053558 | 9 | 133 | 0.0 | 0.0 | 0.00 | 0.00 | 0.00 | 81 | 1016.7 |
| 20260505052759 | 9 | 132 | 0.0 | 0.0 | 0.00 | 0.00 | 0.00 | 81 | 1016.8 |
| 20260505052000 | 10 | 132 | 0.0 | 0.0 | 0.00 | 0.00 | 0.00 | 81 | 1016.8 |
| 20260505051158 | 10 | 132 | 0.0 | 0.0 | 0.00 | 0.00 | 0.00 | 81 | 1016.8 |
| 20260505050359 | 10 | 132 | 0.0 | 0.0 | 0.00 | 0.00 | 0.00 | 81 | 1016.9 |
| 20260505041600 | 10 | 132 | 0.0 | 0.0 | 0.00 | 0.00 | 0.00 | 80 | 1016.5 |
| 20260505040800 | 10 | 133 | 0.0 | 0.0 | 0.00 | 0.00 | 0.00 | 80 | 1016.6 |
| 20260505040006 | 10 | 133 | 0.0 | 0.0 | 0.00 | 0.00 | 0.00 | 80 | 1016.7 |
| 20260505035200 | 11 | 132 | 0.0 | 0.0 | 0.00 | 0.00 | 0.00 | 80 | 1016.7 |
| 20260505034401 | 11 | 133 | 0.0 | 0.0 | 0.00 | 0.00 | 0.00 | 78 | 1016.8 |
| 20260505033602 | 11 | 132 | 0.0 | 0.0 | 0.00 | 0.00 | 0.00 | 79 | 1016.8 |
| 20260505030401 | 11 | 133 | 0.0 | 0.0 | 0.00 | 0.00 | 0.00 | 76 | 1016.9 |
| 20260505025600 | 11 | 132 | 0.0 | 0.0 | 0.00 | 0.00 | 0.00 | 75 | 1016.8 |
| 20260505024800 | 12 | 132 | 0.0 | 0.0 | 0.00 | 0.00 | 0.00 | 74 | 1016.8 |
| 20260505024000 | 12 | 133 | 0.0 | 0.0 | 0.00 | 0.00 | 0.00 | 73 | 1016.8 |
| 20260505023200 | 12 | 132 | 0.0 | 0.0 | 0.00 | 0.00 | 0.00 | 71 | 1016.8 |
| 20260505022403 | 12 | 132 | 0.0 | 0.0 | 0.00 | 0.00 | 0.00 | 70 | 1016.8 |
| 20260505021601 | 12 | 133 | 0.0 | 0.0 | 0.00 | 0.00 | 0.00 | 69 | 1016.8 |
| 20260505020759 | 13 | 133 | 0.0 | 0.0 | 0.00 | 0.00 | 0.00 | 67 | 1016.7 |
| 20260505020004 | 13 | 133 | 0.0 | 0.0 | 0.00 | 0.00 | 0.00 | 66 | 1016.7 |
| 20260505015200 | 13 | 133 | 0.0 | 0.0 | 0.00 | 0.00 | 0.00 | 66 | 1016.6 |
| 20260505013600 | 15 | 132 | 0.0 | 0.0 | 0.00 | 0.00 | 0.00 | 61 | 1016.5 |
| 20260505012001 | 16 | 132 | 0.0 | 0.0 | 0.00 | 0.00 | 0.00 | 56 | 1016.4 |
| 20260505011201 | 16 | 133 | 0.0 | 0.0 | 0.00 | 0.00 | 0.00 | 53 | 1016.3 |
| 20260505010400 | 17 | 132 | 0.0 | 0.0 | 0.00 | 0.00 | 0.00 | 50 | 1016.3 |
| 20260505005600 | 17 | 133 | 0.0 | 0.0 | 0.00 | 0.00 | 0.00 | 48 | 1016.2 |
| 20260505004001 | 19 | 133 | 0.0 | 0.0 | 0.00 | 0.00 | 0.00 | 43 | 1016.1 |
| 20260505003200 | 20 | 133 | 0.0 | 0.0 | 0.00 | 0.00 | 0.00 | 41 | 1016.1 |
| 20260505002400 | 20 | 133 | 0.0 | 0.0 | 0.00 | 0.00 | 0.00 | 39 | 1016.0 |
| 20260505001601 | 21 | 133 | 0.0 | 0.0 | 0.00 | 0.00 | 0.00 | 38 | 1016.0 |
| 20260505000800 | 21 | 133 | 0.0 | 0.0 | 0.00 | 0.00 | 0.00 | 36 | 1016.0 |
| 20260505000001 | 22 | 132 | 0.0 | 1.6 | 0.00 | 0.00 | 0.00 | 35 | 1016.0 |
| 20260504235200 | 22 | 133 | 0.0 | 1.6 | 0.00 | 0.00 | 0.00 | 35 | 1015.9 |
| 20260504234359 | 22 | 259 | 0.0 | 0.0 | 0.00 | 0.00 | 0.00 | 33 | 1015.9 |
| 20260504233600 | 23 | 259 | 0.0 | 0.0 | 0.00 | 0.00 | 0.00 | 31 | 1015.9 |
| 20260504232759 | 23 | 117 | 0.0 | 0.0 | 0.00 | 0.00 | 0.00 | 31 | 1015.9 |
| 20260504231159 | 25 | 117 | 0.0 | 3.2 | 0.00 | 0.00 | 0.00 | 27 | 1015.9 |
| 20260504230359 | 26 | 184 | 0.0 | 1.6 | 0.00 | 0.00 | 0.00 | 24 | 1016.0 |
| 20260504225559 | 25 | 183 | 0.0 | 6.4 | 0.00 | 0.00 | 0.00 | 24 | 1016.0 |
| 20260504224759 | 26 | 139 | 0.0 | 6.4 | 0.00 | 0.00 | 0.00 | 23 | 1016.0 |
| 20260504222400 | 26 | 139 | 0.0 | 6.4 | 0.00 | 0.00 | 0.00 | 25 | 1016.1 |
| 20260504221600 | 26 | 242 | 1.6 | 6.4 | 0.00 | 0.00 | 0.00 | 22 | 1016.0 |
| 20260504220759 | 26 | 169 | 0.0 | 3.2 | 0.00 | 0.00 | 0.00 | 24 | 1016.1 |
| 20260504220000 | 26 | 243 | 0.0 | 1.6 | 0.00 | 0.00 | 0.00 | 24 | 1016.0 |
| 20260504214359 | 26 | 135 | 0.0 | 6.4 | 0.00 | 0.00 | 0.00 | 25 | 1016.1 |
| 20260504213559 | 26 | 131 | 0.0 | 1.6 | 0.00 | 0.00 | 0.00 | 22 | 1016.1 |
| 20260504212800 | 26 | 225 | 0.0 | 3.2 | 0.00 | 0.00 | 0.00 | 21 | 1016.1 |
| 20260504212000 | 25 | 252 | 1.6 | 4.8 | 0.00 | 0.00 | 0.00 | 23 | 1016.1 |
| 20260504211159 | 25 | 133 | 0.0 | 6.4 | 0.00 | 0.00 | 0.00 | 23 | 1016.0 |
| 20260504210359 | 25 | 126 | 0.0 | 4.8 | 0.00 | 0.00 | 0.00 | 23 | 1016.7 |
| 20260504205559 | 26 | 290 | 1.6 | 4.8 | 0.00 | 0.00 | 0.00 | 22 | 1016.2 |
| 20260504204000 | 26 | 188 | 1.6 | 4.8 | 0.00 | 0.00 | 0.00 | 25 | 1016.3 |
| 20260504203159 | 26 | 311 | 0.0 | 3.2 | 0.00 | 0.00 | 0.00 | 24 | 1016.4 |
| 20260504201600 | 26 | 148 | 0.0 | 3.2 | 0.00 | 0.00 | 0.00 | 27 | 1016.7 |
| 20260504200759 | 25 | 98 | 1.6 | 4.8 | 0.00 | 0.00 | 0.00 | 24 | 1016.7 |
| 20260504200003 | 25 | 123 | 0.0 | 3.2 | 0.00 | 0.00 | 0.00 | 24 | 1016.8 |
| 20260504195201 | 25 | 47 | 1.6 | 8.0 | 0.00 | 0.00 | 0.00 | 25 | 1016.8 |
| 20260504194401 | 25 | 232 | 0.0 | 3.2 | 0.00 | 0.00 | 0.00 | 25 | 1016.9 |
| 20260504193601 | 24 | 116 | 0.0 | 6.4 | 0.00 | 0.00 | 0.00 | 28 | 1016.9 |
| 20260504192801 | 24 | 170 | 1.6 | 4.8 | 0.00 | 0.00 | 0.00 | 26 | 1017.1 |
| 20260504192001 | 24 | 342 | 3.2 | 4.8 | 0.00 | 0.00 | 0.00 | 26 | 1017.1 |
| 20260504191200 | 24 | 242 | 3.2 | 6.4 | 0.00 | 0.00 | 0.00 | 29 | 1017.2 |
| 20260504190400 | 23 | 114 | 0.0 | 1.6 | 0.00 | 0.00 | 0.00 | 30 | 1017.3 |
| 20260504184759 | 23 | 274 | 1.6 | 6.4 | 0.00 | 0.00 | 0.00 | 30 | 1017.7 |
| 20260504183959 | 23 | 197 | 0.0 | 4.8 | 0.00 | 0.00 | 0.00 | 29 | 1017.8 |
| 20260504183159 | 23 | 346 | 1.6 | 4.8 | 0.00 | 0.00 | 0.00 | 28 | 1017.8 |
| 20260504182358 | 23 | 6 | 0.0 | 6.4 | 0.00 | 0.00 | 0.00 | 29 | 1018.0 |
| 20260504181559 | 23 | 33 | 1.6 | 8.0 | 0.00 | 0.00 | 0.00 | 27 | 1018.0 |
| 20260504180800 | 23 | 285 | 0.0 | 4.8 | 0.00 | 0.00 | 0.00 | 28 | 1018.1 |
| 20260504175201 | 23 | 291 | 1.6 | 4.8 | 0.00 | 0.00 | 0.00 | 28 | 1018.3 |
| 20260504173600 | 22 | 267 | 0.0 | 4.8 | 0.00 | 0.00 | 0.00 | 30 | 1018.5 |
| 20260504172802 | 22 | 354 | 1.6 | 4.8 | 0.00 | 0.00 | 0.00 | 29 | 1018.5 |
| 20260504170401 | 22 | 75 | 0.0 | 3.2 | 0.00 | 0.00 | 0.00 | 34 | 1018.9 |
| 20260504150400 | 21 | 155 | 0.0 | 3.2 | 0.00 | 0.00 | 0.00 | 36 | 1020.0 |
| 20260504130359 | 10 | 246 | 0.0 | 0.0 | 0.00 | 0.00 | 0.00 | 73 | 1020.1 |
| 20260504110359 | 3 | 246 | 0.0 | 0.0 | 0.00 | 0.00 | 0.00 | 78 | 1019.6 |
| 20260504081558 | 5 | 246 | 0.0 | 0.0 | 0.00 | 0.00 | 0.00 | 80 | 1019.5 |
| 20260504080758 | 5 | 246 | 0.0 | 0.0 | 0.00 | 0.00 | 0.00 | 81 | 1019.5 |
| 20260504070359 | 5 | 246 | 0.0 | 0.0 | 0.00 | 0.00 | 0.00 | 82 | 1019.7 |